Hourly Data Report for June 25, 2018

OTTAWA INTL A
ONTARIO
Current Station Operator: NAVCAN

45°19'00.000" N
75°40'00.000" W
114.90 m
6106001
71628
YOW

Download Data

Hourly Data (June 2018)
Hourly Data Report for June 25, 2018
TIME
LST
Temp Definition
°C
Dew Point Definition
°C
Rel Hum Definition
%
Precip. Amount Definition
mm

Wind Dir Definition
10's deg

Wind Spd Definition
km/h
Visibility Definition
km
Stn Press Definition
kPa
Hmdx Definition


Wind Chill Definition


Weather Definition


00:00 11.6 10.9 95   25 10 24.1 100.16     LegendNANA
01:00 10.5 9.9 96   28 9 24.1 100.16     Clear
02:00 12.3 10.6 89   33 15 24.1 100.19     LegendNANA
03:00 12.3 8.8 79   35 16 24.1 100.21     LegendNANA
04:00 11.8 7.3 74   35 19 24.1 100.27     Clear
05:00 12.0 6.4 68   35 16 24.1 100.38     LegendNANA
06:00 13.2 6.1 62   35 22 24.1 100.46     LegendNANA
07:00 14.5 6.7 59   36 19 24.1 100.55     Clear
08:00 16.4 6.8 52   1 17 24.1 100.65     LegendNANA
09:00 17.9 5.9 45   35 20 24.1 100.72     LegendNANA
10:00 18.7 3.3 36   32 14 24.1 100.74     Mainly Clear
11:00 19.5 4.8 38   35 19 24.1 100.76     LegendNANA
12:00 20.0 4.2 35   34 24 24.1 100.80     LegendNANA
13:00 21.1 2.7 29   33 26 24.1 100.80     Mainly Clear
14:00 21.8 3.6 30   1 26 24.1 100.80     LegendNANA
15:00 21.9 3.5 30   33 28 24.1 100.81     LegendNANA
16:00 22.0 3.4 29   35 22 24.1 100.79     Clear
17:00 21.9 2.8 28   33 26 24.1 100.81     LegendNANA
18:00 21.0 2.9 30   34 20 24.1 100.84     LegendNANA
19:00 19.9 2.8 32   35 21 24.1 100.84     Clear
20:00 17.9 3.3 37   36 12 24.1 100.87     LegendNANA
21:00 16.9 3.5 40   33 7 24.1 100.91     LegendNANA
22:00 13.0 4.0 54   36 2 24.1 100.95     Clear
23:00 11.4 5.8 68   25 8 24.1 101.03     LegendNANA

Notes on Data Quality.

Legend

  • E = Estimated
  • M = Missing
  • NA = Not Available*
  • [empty] = Indicates an unobserved value
Date modified: